• In Uzbekistan
  • List of Countries
  • For 7 days
  • Water Temperature
  • Satellite Maps
  • Weather Map
  • Weather Widgets
  • user-avatar
    Login

    Hourly Weather Ashtarak

    Today, 25 February, Saturday

    Time Temperature Precipitation Wind Pressure Humidity
    00:00 -7°C° 0 mm 1 mps 658 mmHg 92%
    01:00 -8°C° 0 mm 1 mps 658 mmHg 91%
    02:00 -8°C° 0 mm 1 mps 658 mmHg 91%
    03:00 -8°C° 0 mm 1 mps 658 mmHg 90%
    04:00 -8°C° 0 mm 1 mps 658 mmHg 90%
    05:00 -8°C° 0 mm 1 mps 658 mmHg 89%
    06:00 -8°C° 0 mm 1 mps 658 mmHg 89%
    07:00 -4°C° 0 mm 1 mps 660 mmHg 87%
    08:00 -1°C° 0 mm 1 mps 661 mmHg 86%
    09:00 +2°C° 0 mm 1 mps 662 mmHg 85%
    10:00 +4°C° 0 mm 1 mps 661 mmHg 84%
    11:00 +5°C° 0 mm 1 mps 661 mmHg 83%
    12:00 +6°C° 0 mm 1 mps 661 mmHg 82%
    13:00 +6°C° 0 mm 1 mps 660 mmHg 83%
    14:00 +6°C° 0 mm 1 mps 660 mmHg 84%
    15:00 +6°C° 0 mm 1 mps 659 mmHg 86%
    16:00 +2°C° 0 mm 1 mps 658 mmHg 88%
    17:00 -1°C° 0 mm 1 mps 657 mmHg 90%
    18:00 -6°C° 0 mm 1 mps 656 mmHg 92%
    19:00 -6°C° 0 mm 1 mps 657 mmHg 91%
    20:00 -7°C° 0 mm 1 mps 657 mmHg 91%
    21:00 -7°C° 0 mm 1 mps 657 mmHg 91%
    22:00 -7°C° 0 mm 1 mps 657 mmHg 91%
    23:00 -7°C° 0 mm 1 mps 657 mmHg 90%

    Tomorrow, 26 February, Sunday

    Time Temperature Precipitation Wind Pressure Humidity
    00:00 -7°C° 0 mm 1 mps 657 mmHg 89%
    01:00 -7°C° 0 mm 1 mps 657 mmHg 89%
    02:00 -7°C° 0 mm 1 mps 657 mmHg 89%
    03:00 -7°C° 0 mm 1 mps 656 mmHg 88%
    04:00 -7°C° 0 mm 1 mps 656 mmHg 88%
    05:00 -6°C° 0 mm 1 mps 656 mmHg 88%
    06:00 -6°C° 0 mm 1 mps 656 mmHg 88%
    07:00 -3°C° 0 mm 1 mps 657 mmHg 86%
    08:00 0°C° 0 mm 1 mps 657 mmHg 84%
    09:00 +3°C° 0 mm 1 mps 658 mmHg 82%
    10:00 +4°C° 0 mm 1 mps 658 mmHg 82%
    11:00 +5°C° 0 mm 1 mps 657 mmHg 82%
    12:00 +6°C° 0 mm 1 mps 657 mmHg 83%
    13:00 +6°C° 0 mm 1 mps 657 mmHg 84%
    14:00 +6°C° 0 mm 1 mps 657 mmHg 85%
    15:00 +6°C° 0 mm 1 mps 656 mmHg 87%
    16:00 +4°C° 0 mm 1 mps 656 mmHg 89%
    17:00 +1°C° 0 mm 1 mps 655 mmHg 91%
    18:00 -2°C° 0 mm 1 mps 654 mmHg 93%
    19:00 -3°C° 0 mm 1 mps 655 mmHg 93%
    20:00 -3°C° 0 mm 1 mps 655 mmHg 92%
    21:00 -4°C° 0 mm 1 mps 655 mmHg 92%
    22:00 -4°C° 0 mm 1 mps 656 mmHg 92%
    23:00 -3°C° 0 mm 1 mps 656 mmHg 91%

    Day after tomorrow, 27 February, Monday

    Time Temperature Precipitation Wind Pressure Humidity
    00:00 -3°C° 0 mm 1 mps 656 mmHg 91%
    01:00 -4°C° 0 mm 1 mps 656 mmHg 92%
    02:00 -4°C° 0 mm 1 mps 656 mmHg 92%
    03:00 -6°C° 0 mm 0 mps 656 mmHg 93%
    04:00 -6°C° 0 mm 0 mps 656 mmHg 92%
    05:00 -6°C° 0 mm 0 mps 656 mmHg 92%
    06:00 -7°C° 0 mm 1 mps 656 mmHg 92%
    07:00 -3°C° 0 mm 0 mps 658 mmHg 88%
    08:00 0°C° 0 mm 0 mps 659 mmHg 85%
    09:00 +3°C° 0 mm 0 mps 660 mmHg 81%
    10:00 +5°C° 0 mm 1 mps 660 mmHg 82%
    11:00 +5°C° 0 mm 1 mps 660 mmHg 82%
    12:00 +6°C° 0 mm 1 mps 660 mmHg 83%
    13:00 +6°C° 0 mm 1 mps 659 mmHg 84%
    14:00 +6°C° 0 mm 1 mps 659 mmHg 84%
    15:00 +6°C° 0 mm 1 mps 658 mmHg 85%
    16:00 +4°C° 0 mm 1 mps 657 mmHg 87%
    17:00 +2°C° 0 mm 1 mps 657 mmHg 90%
    18:00 -1°C° 0 mm 1 mps 656 mmHg 93%
    19:00 -2°C° 0 mm 1 mps 656 mmHg 93%
    20:00 -2°C° 0 mm 1 mps 656 mmHg 92%
    21:00 -3°C° 0 mm 1 mps 656 mmHg 92%
    22:00 -3°C° 0 mm 1 mps 656 mmHg 91%
    23:00 -4°C° 0 mm 1 mps 656 mmHg 90%

    28 February, Tuesday

    Time Temperature Precipitation Wind Pressure Humidity
    00:00 -4°C° 0 mm 1 mps 656 mmHg 90%
    01:00 -4°C° 0 mm 1 mps 656 mmHg 89%
    02:00 -4°C° 0 mm 1 mps 656 mmHg 89%
    03:00 -4°C° 0 mm 1 mps 656 mmHg 88%
    04:00 -4°C° 0 mm 1 mps 656 mmHg 88%
    05:00 -4°C° 0 mm 1 mps 656 mmHg 88%
    06:00 -4°C° 0 mm 1 mps 656 mmHg 87%
    07:00 -1°C° 0 mm 1 mps 657 mmHg 84%
    08:00 +2°C° 0 mm 1 mps 659 mmHg 82%
    09:00 +5°C° 0 mm 1 mps 660 mmHg 79%
    10:00 +6°C° 0 mm 1 mps 660 mmHg 78%
    11:00 +6°C° 0 mm 1 mps 660 mmHg 78%
    12:00 +7°C° 0 mm 1 mps 659 mmHg 77%
    13:00 +8°C° 0 mm 1 mps 659 mmHg 78%
    14:00 +8°C° 0 mm 1 mps 659 mmHg 78%
    15:00 +8°C° 0 mm 1 mps 659 mmHg 78%
    16:00 +5°C° 0 mm 1 mps 658 mmHg 82%
    17:00 +2°C° 0 mm 1 mps 657 mmHg 85%
    18:00 0°C° 0 mm 1 mps 657 mmHg 89%
    19:00 -1°C° 0 mm 1 mps 657 mmHg 89%
    20:00 -1°C° 0 mm 1 mps 657 mmHg 89%
    21:00 -1°C° 0 mm 1 mps 658 mmHg 89%
    22:00 -2°C° 0 mm 1 mps 658 mmHg 89%
    23:00 -3°C° 0 mm 1 mps 658 mmHg 88%

    1 March, Wednesday

    Time Temperature Precipitation Wind Pressure Humidity
    00:00 -3°C° 0 mm 1 mps 657 mmHg 88%
    01:00 -4°C° 0 mm 1 mps 657 mmHg 87%
    02:00 -4°C° 0 mm 1 mps 657 mmHg 85%
    03:00 -4°C° 0 mm 1 mps 657 mmHg 84%
    04:00 -4°C° 0 mm 1 mps 657 mmHg 83%
    05:00 -4°C° 0 mm 1 mps 657 mmHg 83%
    06:00 -3°C° 0 mm 1 mps 657 mmHg 82%
    07:00 0°C° 0 mm 1 mps 658 mmHg 80%
    08:00 +3°C° 0 mm 1 mps 659 mmHg 78%
    09:00 +6°C° 0 mm 1 mps 660 mmHg 75%
    10:00 +7°C° 0 mm 1 mps 660 mmHg 75%
    11:00 +8°C° 0 mm 1 mps 660 mmHg 74%
    12:00 +9°C° 0 mm 1 mps 659 mmHg 74%
    13:00 +9°C° 0 mm 1 mps 659 mmHg 74%
    14:00 +9°C° 0 mm 1 mps 658 mmHg 75%
    15:00 +9°C° 0 mm 1 mps 658 mmHg 75%
    16:00 +7°C° 0 mm 1 mps 657 mmHg 80%
    17:00 +4°C° 0 mm 1 mps 657 mmHg 84%
    18:00 +2°C° 0 mm 1 mps 656 mmHg 88%
    19:00 +1°C° 0 mm 1 mps 656 mmHg 87%
    20:00 +1°C° 0 mm 1 mps 656 mmHg 86%
    21:00 0°C° 0 mm 1 mps 656 mmHg 85%
    22:00 0°C° 0 mm 1 mps 656 mmHg 84%
    23:00 -1°C° 0 mm 1 mps 655 mmHg 83%

    2 March, Thursday

    Time Temperature Precipitation Wind Pressure Humidity
    00:00 -1°C° 0 mm 1 mps 655 mmHg 82%
    01:00 -1°C° 0 mm 1 mps 655 mmHg 81%
    02:00 -1°C° 0 mm 1 mps 654 mmHg 80%
    03:00 -2°C° 0 mm 0 mps 654 mmHg 80%
    04:00 0°C° 0 mm 1 mps 654 mmHg 80%
    05:00 0°C° 0 mm 1 mps 654 mmHg 81%
    06:00 0°C° 0 mm 1 mps 654 mmHg 82%
    07:00 +2°C° 0 mm 1 mps 654 mmHg 79%
    08:00 +4°C° 0 mm 1 mps 655 mmHg 77%
    09:00 +6°C° 0 mm 1 mps 655 mmHg 74%
    10:00 +7°C° 0 mm 1 mps 655 mmHg 73%
    11:00 +8°C° 0 mm 1 mps 655 mmHg 72%
    12:00 +9°C° 0 mm 1 mps 654 mmHg 71%
    13:00 +9°C° 0 mm 1 mps 654 mmHg 72%
    14:00 +9°C° 0 mm 1 mps 653 mmHg 73%
    15:00 +9°C° 0 mm 1 mps 653 mmHg 74%
    16:00 +7°C° 0.1 mm 1 mps 652 mmHg 78%
    17:00 +5°C° 0.1 mm 0 mps 652 mmHg 83%
    18:00 +3°C° 0.1 mm 0 mps 652 mmHg 87%
    19:00 +3°C° 0.1 mm 0 mps 652 mmHg 87%
    20:00 +3°C° 0.1 mm 0 mps 652 mmHg 87%
    21:00 +2°C° 0.1 mm 0 mps 652 mmHg 87%
    22:00 +2°C° 0.1 mm 0 mps 652 mmHg 87%
    23:00 +2°C° 0.1 mm 0 mps 652 mmHg 87%
    Show more